Regional Weather Roundup
Issued by NWS Wakefield, VA

Home | Current Version | Previous Version | Graphics & Text | Print | Product List | Glossary On
Versions: 1 2 3 4 5 6 7 8 9 10 11 12 13 14 15 16 17 18 19 20 21 22 23 24 25 26 27 28 29 30 31 32 33 34 35 36 37 38 39 40 41 42 43 44 45 46 47 48 49 50
730
ASUS41 KAKQ 241515
RWRAKQ

REGIONAL WEATHER ROUNDUP
NATIONAL WEATHER SERVICE WAKEFIELD VA
1100 AM EDT TUE MAY 24 2016

Note: "fair" indicates few or no clouds below 12,000 feet with no
significant weather and/or obstructions to visibility. * = Denotes
station may not report precipitation (e.g., rain,snow,etc.),
thunder or fog.

VAZ042-051-052>054-056-241600-
NORTHERN VIRGINIA

CITY           SKY/WX    TMP DP  RH WIND       PRES   REMARKS
WASH NATIONAL  FAIR      74  55  51 NW10      30.02S
DULLES         FAIR      73  52  47 NW13      30.03S
FORT BELVOIR   FAIR      75  54  47 NW10      30.02R
QUANTICO       FAIR      75  56  51 N9        30.03S
FREDERICKSBRG* FAIR      73  57  56 NW7       30.03S
STAFFORD*      FAIR      74  56  52 NW14      30.07S
WARRENTON      FAIR      77  48  36 NW8       30.04S
CULPEPER*      FAIR      76  55  47 NW5       30.05S
MANASSAS*      SUNNY     75  54  46 NW12      30.03S
LEESBURG*      FAIR      73  55  53 NW12G24   30.05S
WINCHESTER     FAIR      72  54  53 NW8       30.06S
FRONT ROYAL*   FAIR      72  54  53 NW3       30.06S
LURAY*         FAIR      72  55  56 S5        30.07S
$$

VAZ048-049-060>072-079>083-241600-
CENTRAL AND SOUTH CENTRAL VIRGINIA

CITY           SKY/WX    TMP DP  RH WIND       PRES   REMARKS
RICHMOND       FAIR      74  55  51 W8        30.04S
CHESTERFIELD*  FAIR      73  52  46 W10       30.06S
PETERSBURG*    FAIR      75  55  50 W8        30.06S
HANOVER        FAIR      74  54  49 W8        30.06R
TAPPAHANNOCK*  FAIR      74  56  52 SE8       30.04R
QUINTON*       FAIR      73  58  59 W7        30.04S
CHARLOTTSVILLE FAIR      77  50  38 N10G18    30.05F
GORDONSVILLE*  FAIR      76  56  50 NW6       30.05S
ORANGE*        FAIR      75  59  57 CALM      30.07R
LOUISA*        FAIR      79  61  53 N6        30.04S
BUMPASS*       FAIR      74  56  53 NW3       30.05S
FARMVILLE*     FAIR      75  56  50 SW7       30.06S
CREWE*         PTSUNNY   73  57  56 W5        30.07S
FORT PICKETT*  NOT AVBL
CHASE CITY*    FAIR      70  56  61 W5        30.10S
CLARKSVILLE*   FAIR      70  57  64 CALM      30.10S
SOUTH HILL*    FAIR      70  59  67 SW7       30.14S
LAWRENCEVILLE* FAIR      71  59  65 W5        30.07S
EMPORIA*       FAIR      72  57  60 W7        30.08S
$$

VAZ088>098-241600-
SOUTHEAST VIRGINIA

CITY           SKY/WX    TMP DP  RH WIND       PRES   REMARKS
NORFOLK        FAIR      71  57  61 W7        30.03R
VIRGINIA BEACH FAIR      76  57  51 W12       30.02R
NORFOLK NAVAL  FAIR      70  57  63 W8        30.05R
WEST POINT*    FAIR      73  56  53 W9        30.05S
SALUDA*        FAIR      72  59  64 NW7       30.02R
NEWPORT NEWS   FAIR      73  59  61 W9        30.04R
LANGLEY AFB    NOT AVBL
FORT EUSTIS    NOT AVBL
WILLIAMSBURG*  FAIR     N/A N/A N/A W8        30.05S
HR EXEC AP*    FAIR      72  63  73 W8        30.05F
FRANKLIN*      FAIR      72  58  60 W9        30.06S
US460-WAKEFLD  FAIR      73  56  54 SW8       30.05S
$$

VAZ020-022-025-037-045-241600-
WEST CENTRAL AND SOUTHWEST VIRGINIA

CITY           SKY/WX    TMP DP  RH WIND       PRES   REMARKS
STAUNTON*      FAIR      74  58  57 SW3       30.11S
WAYNESBORO*    FAIR      70  55  58 SW3       30.11S
HOT SPRINGS VA FAIR      61  50  67 NW6       30.19S
LYNCHBURG      FAIR      73  54  51 NW6       30.12S
DANVILLE       FAIR      71  57  61 W7        30.12S
SOUTH BOSTON*  FAIR      72  59  62 CALM      30.10F
MARTINSVILLE   FAIR      71  54  54 N3        30.16S
ROANOKE        FAIR      71  55  56 SW8       30.15S
BLACKSBURG     FAIR      67  55  67 W3        30.21S
DUBLIN*        FAIR      70  53  54 CALM      30.19F
MARION*        FAIR      68  51  53 CALM      30.23S
HILLSVILLE*    FAIR      65  51  59 NW8       30.19S
RICHLANDS*     FAIR      65  28  25 CALM      30.20F
WISE*          FAIR      68  41  37 CALM      30.22S
ABINGDON*      FAIR      69  50  50 W3        30.19F
$$

MDZ021>025-VAZ099-100-241600-
SOUTHERN MARYLAND AND THE DELMARVA PENINSULA

CITY           SKY/WX    TMP DP  RH WIND       PRES   REMARKS
PATUXENT RIVER PTSUNNY   71  55  56 NW13      30.00R
BAY BRIDGE APT MOSUNNY   68  55  64 NW9       29.99S
LEONARDTOWN    SUNNY     70  55  60 W8        30.02R
DOVER          NOT AVBL
GEORGETOWN     CLOUDY    66  55  67 VRB6      29.99R
EASTON         MOSUNNY   70  59  68 NW7       30.03R
CAMBRIDGE      CLOUDY    68  55  64 NW10      29.99S
SALISBURY      MOSUNNY   71  56  58 NW13      29.98R
OCEAN CITY     MOSUNNY   69  56  62 N9        29.97R
WALLOPS ISLAND FAIR      73  57  57 NW14      29.98R
ACCOMACK*      FAIR      70  54  56 W13       30.01R
$$

NCZ012>017-030>032-241600-
NORTH CENTRAL AND EASTERN NORTH CAROLINA

CITY           SKY/WX    TMP DP  RH WIND       PRES   REMARKS
ROANOKE RAPIDS FAIR      72  55  56 W8        30.08S
RALEIGH        MOSUNNY   73  57  57 W7        30.13R
ELIZABETH CITY SUNNY     72  57  59 W12       30.05S
AHOSKIE*       SUNNY     71  58  64 CALM      30.07S
EDENTON*       SUNNY    N/A N/A N/A W9        30.07S
CURRITUCK*     SUNNY     72  57  58 W10       30.04F
KILL DEVIL HLS SUNNY     72  56  58 W8        30.04S
MANTEO         SUNNY     71  58  63 W9        30.06S
CAPE HATTERAS  SUNNY     70  55  59 W10G20    30.09S
TARBORO*       FAIR      73  58  60 W7        30.10S
GOLDSBORO      SUNNY     74  56  54 W10       30.10S
WASHINGTON     SUNNY     72  56  58 W9        30.09F
GREENVILLE     SUNNY     72  57  60 W6        30.11F HAZE
NEW BERN       SUNNY     73  57  57 NW9       30.12F
WILMINGTON     SUNNY     73  52  47 W10       30.14S
$$

VAZ048-241600-
ELSEWHERE

CITY           SKY/WX    TMP DP  RH WIND       PRES   REMARKS
HARRISBURG PA  MOSUNNY   75  49  39 NW10      29.98S
BALTIMORE      MOSUNNY   74  53  48 NW6       29.99S
ANNAPOLIS      SUNNY     71  53  52 NW9       29.99S
ANDREWS AFB    NOT AVBL
PHILADELPHIA   PTSUNNY   70  55  59 S7        29.96R
HENDERSON NC   SUNNY     69  55  60 SW5       30.11S
GREENSBORO     MOSUNNY   74  53  48 W8        30.14S
ROCKY MOUNT    SUNNY     73  57  57 SW9       30.10S
$$

VAZ100-241600-
MARINE

STATION/POSITION TIME  TEMP    WIND        PRES    WAVE   SWELL
                       AIR SEA DIR/SP/G            HT/PER HT/PER
                 (UTC) (F)     (DEG/KT/KT) (MB)    (FT/S) (FT/S)
BRANDYWINE LGT   1400   60     330/  6/  8 1014.7R
CAPE MAY NJ      1400   61 63  310/  5/  7 1014.2R
LEWES DE         1400   62 59  330/  6/  7 1014.5R
15NM E FENWICK I 1450   58 56              1014.8R   3/ 9
OCEAN-CITY-INLET 1400   66 58  310/ 10/ 13 1013.8R
WACHAPREAGUE VA  1400   70 63  270/  7/ 12 1015.4R
THOMAS POINT MD  1500   70 61  340/ 10/ 11 1016.9R
GOOSES REEF MD   1500   66 62  330/  8/ 10 1016.8R   1/ 2
COVE POINT MD    1400   68     330/ 10/ 15 1016.1R
SOLOMONS ISLAND  1400   68 62  330/  9/ 12   N/A
BISHOPS HEAD MD  1400   65 63  290/ 13/ 15 1015.5R
PINEY POINT MD   1400          320/ 15/ 16   N/A
POTOMAC MD       1500   65 62  300/ 14/ 16 1015.4R   1/ 2
CAMBRIDGE MD     1400   65 63  290/ 10/ 13 1014.7R
LEWISETTA VA     1400   69 63  300/ 12/ 14 1015.7R
RAPPAHANNOCK LGT 1400          230/  7/  8 1016.8R
STINGRAY PT      1500   67 64  300/ 10/ 12 1016.8S   1
YORK RVR RNG VA  1400   66     270/ 10/ 11 1016.0R
YORKTOWN VA      1400   67 64  290/  9/ 11 1016.4R
JAMESTOWN VA     1500   67 66  320/  8/  8   N/A     0
DOMINION TERM VA 1400   65     270/  7/  8 1016.9F
KIPTOPEKE VA     1400      63  270/  9/ 11   N/A
CHES BAY BRIDGE  1400   64 63  230/  8/  9 1016.6R
CAPE HENRY VA    1400   67     250/  7/ 12   N/A
CHESAPEAKE LGHT  1400   63     250/ 13/ 14 1017.3R
WILLOUBY STN VA  1400   63     240/ 11/ 12 1017.6S
CAPE HENRY BUOY  1412      59                N/A     3/10   2/11
1ST LANDING BUOY 1500   64 63  250/ 12/ 14 1016.7S   2/ 3
CAPE CHARLES BUO 1426      60                N/A     3/11   2/11
OFFSHORE WE BUOY 1421      57                N/A     4/10   3/10
64NM E OF VA BCH 1450   59 56  230/ 12/ 14 1016.6R   4/ 9   3/ 9
DUCK PIER NC     1400   65 61  240/ 11/ 15 1016.8F
44100 DUCK FRF   1424      58                N/A     3/11   2/11
44056 DUCK FRF   1411      62                N/A     3/ 9   2/11
OREGON INLET NC  1400   66 63  250/ 10/ 12 1017.8F
HATTERAS NC      1400   66 66  280/ 17/ 19 1018.5R
DIAMOND SHLS NC  1450   66 71  280/ 12/ 14 1019.3R C1F1C2F2C3F3C4F4C5F5C6F6C7F7C8M1C9!



USA.gov is the U.S. government's official web portal to all federal, state and local government web resources and services.